owner,sensor,date,latitude,longitude,vertical_datum,sea_water_temperature,qcFlag 
TCOON,ioos:station:TCOON:149:1,2014-09-01T02:30:00Z,27.8383,-97.0503,0.0,29.0,2 
TCOON,ioos:station:TCOON:149:1,2014-09-01T04:00:00Z,27.8383,-97.0503,0.0,29.0,2 
TCOON,ioos:station:TCOON:149:1,2014-09-01T04:30:00Z,27.8383,-97.0503,0.0,29.0,2 
TCOON,ioos:station:TCOON:149:1,2014-09-01T06:00:00Z,27.8383,-97.0503,0.0,29.0,2 
TCOON,ioos:station:TCOON:149:1,2014-09-01T07:00:00Z,27.8383,-97.0503,0.0,29.0,2 
TCOON,ioos:station:TCOON:149:1,2014-09-01T07:30:00Z,27.8383,-97.0503,0.0,29.0,2 
TCOON,ioos:station:TCOON:149:1,2014-09-01T08:30:00Z,27.8383,-97.0503,0.0,29.0,2 
TCOON,ioos:station:TCOON:149:1,2014-09-01T09:30:00Z,27.8383,-97.0503,0.0,28.9,2 
TCOON,ioos:station:TCOON:149:1,2014-09-01T11:00:00Z,27.8383,-97.0503,0.0,28.9,2 
TCOON,ioos:station:TCOON:149:1,2014-09-01T11:30:00Z,27.8383,-97.0503,0.0,28.9,2 
TCOON,ioos:station:TCOON:149:1,2014-09-01T12:30:00Z,27.8383,-97.0503,0.0,29.0,2 
TCOON,ioos:station:TCOON:149:1,2014-09-01T13:30:00Z,27.8383,-97.0503,0.0,29.0,2 
TCOON,ioos:station:TCOON:149:1,2014-09-01T17:00:00Z,27.8383,-97.0503,0.0,29.2,2 
TCOON,ioos:station:TCOON:149:1,2014-09-01T17:30:00Z,27.8383,-97.0503,0.0,29.2,2 
TCOON,ioos:station:TCOON:149:1,2014-09-01T18:30:00Z,27.8383,-97.0503,0.0,29.3,2 
TCOON,ioos:station:TCOON:149:1,2014-09-01T19:30:00Z,27.8383,-97.0503,0.0,29.4,2 
TCOON,ioos:station:TCOON:149:1,2014-09-01T21:00:00Z,27.8383,-97.0503,0.0,29.6,2 
TCOON,ioos:station:TCOON:149:1,2014-09-01T21:30:00Z,27.8383,-97.0503,0.0,29.7,2 
TCOON,ioos:station:TCOON:149:1,2014-09-02T00:00:00Z,27.8383,-97.0503,0.0,29.7,2 
TCOON,ioos:station:TCOON:149:1,2014-09-02T00:30:00Z,27.8383,-97.0503,0.0,29.7,2 
TCOON,ioos:station:TCOON:149:1,2014-09-02T01:30:00Z,27.8383,-97.0503,0.0,29.7,2 
TCOON,ioos:station:TCOON:149:1,2014-09-02T02:30:00Z,27.8383,-97.0503,0.0,29.7,2 
TCOON,ioos:station:TCOON:149:1,2014-09-02T03:30:00Z,27.8383,-97.0503,0.0,29.6,2 
TCOON,ioos:station:TCOON:149:1,2014-09-02T05:00:00Z,27.8383,-97.0503,0.0,29.5,2 
TCOON,ioos:station:TCOON:149:1,2014-09-02T05:30:00Z,27.8383,-97.0503,0.0,29.5,2 
TCOON,ioos:station:TCOON:149:1,2014-09-02T07:30:00Z,27.8383,-97.0503,0.0,29.4,2 
TCOON,ioos:station:TCOON:149:1,2014-09-02T09:30:00Z,27.8383,-97.0503,0.0,29.4,2 
TCOON,ioos:station:TCOON:149:1,2014-09-02T10:30:00Z,27.8383,-97.0503,0.0,29.3,2 
TCOON,ioos:station:TCOON:149:1,2014-09-02T11:30:00Z,27.8383,-97.0503,0.0,29.3,2 
TCOON,ioos:station:TCOON:149:1,2014-09-02T13:00:00Z,27.8383,-97.0503,0.0,29.3,2 
TCOON,ioos:station:TCOON:149:1,2014-09-02T13:30:00Z,27.8383,-97.0503,0.0,29.3,2 
TCOON,ioos:station:TCOON:149:1,2014-09-02T14:30:00Z,27.8383,-97.0503,0.0,29.3,2 
TCOON,ioos:station:TCOON:149:1,2014-09-02T15:30:00Z,27.8383,-97.0503,0.0,29.3,2 
TCOON,ioos:station:TCOON:149:1,2014-09-02T16:30:00Z,27.8383,-97.0503,0.0,29.4,2 
TCOON,ioos:station:TCOON:149:1,2014-09-02T18:00:00Z,27.8383,-97.0503,0.0,29.5,2 
TCOON,ioos:station:TCOON:149:1,2014-09-02T19:00:00Z,27.8383,-97.0503,0.0,29.6,2 
TCOON,ioos:station:TCOON:149:1,2014-09-02T19:30:00Z,27.8383,-97.0503,0.0,29.6,2 
TCOON,ioos:station:TCOON:149:1,2014-09-02T21:30:00Z,27.8383,-97.0503,0.0,30.0,2 
TCOON,ioos:station:TCOON:149:1,2014-09-03T03:30:00Z,27.8383,-97.0503,0.0,30.0,2 
TCOON,ioos:station:TCOON:149:1,2014-09-03T04:30:00Z,27.8383,-97.0503,0.0,29.6,2 
TCOON,ioos:station:TCOON:149:1,2014-09-03T05:30:00Z,27.8383,-97.0503,0.0,29.5,2 
TCOON,ioos:station:TCOON:149:1,2014-09-03T08:00:00Z,27.8383,-97.0503,0.0,29.4,2 
TCOON,ioos:station:TCOON:149:1,2014-09-03T09:00:00Z,27.8383,-97.0503,0.0,29.4,2 
TCOON,ioos:station:TCOON:149:1,2014-09-03T09:30:00Z,27.8383,-97.0503,0.0,29.4,2 
TCOON,ioos:station:TCOON:149:1,2014-09-03T11:00:00Z,27.8383,-97.0503,0.0,29.4,2 
TCOON,ioos:station:TCOON:149:1,2014-09-03T11:30:00Z,27.8383,-97.0503,0.0,29.4,2 
TCOON,ioos:station:TCOON:149:1,2014-09-03T13:00:00Z,27.8383,-97.0503,0.0,29.4,2 
TCOON,ioos:station:TCOON:149:1,2014-09-03T13:30:00Z,27.8383,-97.0503,0.0,29.4,2 
TCOON,ioos:station:TCOON:149:1,2014-09-03T14:30:00Z,27.8383,-97.0503,0.0,29.4,2 
TCOON,ioos:station:TCOON:149:1,2014-09-03T16:30:00Z,27.8383,-97.0503,0.0,29.5,2 
TCOON,ioos:station:TCOON:149:1,2014-09-03T17:30:00Z,27.8383,-97.0503,0.0,29.6,2 
TCOON,ioos:station:TCOON:149:1,2014-09-03T19:00:00Z,27.8383,-97.0503,0.0,29.7,2 
TCOON,ioos:station:TCOON:149:1,2014-09-03T19:30:00Z,27.8383,-97.0503,0.0,29.7,2 
TCOON,ioos:station:TCOON:149:1,2014-09-03T21:00:00Z,27.8383,-97.0503,0.0,29.8,2 
TCOON,ioos:station:TCOON:149:1,2014-09-03T21:30:00Z,27.8383,-97.0503,0.0,29.8,2 
TCOON,ioos:station:TCOON:149:1,2014-09-04T00:00:00Z,27.8383,-97.0503,0.0,30.0,2 
TCOON,ioos:station:TCOON:149:1,2014-09-04T02:00:00Z,27.8383,-97.0503,0.0,29.9,2 
TCOON,ioos:station:TCOON:149:1,2014-09-04T03:30:00Z,27.8383,-97.0503,0.0,29.9,2 
TCOON,ioos:station:TCOON:149:1,2014-09-04T04:30:00Z,27.8383,-97.0503,0.0,29.8,2 
TCOON,ioos:station:TCOON:149:1,2014-09-04T05:30:00Z,27.8383,-97.0503,0.0,29.6,2 
TCOON,ioos:station:TCOON:149:1,2014-09-04T06:30:00Z,27.8383,-97.0503,0.0,29.6,2 
TCOON,ioos:station:TCOON:149:1,2014-09-04T08:30:00Z,27.8383,-97.0503,0.0,29.6,2 
TCOON,ioos:station:TCOON:149:1,2014-09-04T10:00:00Z,27.8383,-97.0503,0.0,29.6,2 
TCOON,ioos:station:TCOON:149:1,2014-09-04T10:30:00Z,27.8383,-97.0503,0.0,29.6,2 
TCOON,ioos:station:TCOON:149:1,2014-09-04T11:30:00Z,27.8383,-97.0503,0.0,29.5,2 
TCOON,ioos:station:TCOON:149:1,2014-09-04T13:00:00Z,27.8383,-97.0503,0.0,29.5,2 
TCOON,ioos:station:TCOON:149:1,2014-09-04T13:30:00Z,27.8383,-97.0503,0.0,29.5,2 
TCOON,ioos:station:TCOON:149:1,2014-09-04T14:30:00Z,27.8383,-97.0503,0.0,29.5,2 
TCOON,ioos:station:TCOON:149:1,2014-09-04T16:00:00Z,27.8383,-97.0503,0.0,29.6,2 
TCOON,ioos:station:TCOON:149:1,2014-09-04T17:00:00Z,27.8383,-97.0503,0.0,29.6,2 
TCOON,ioos:station:TCOON:149:1,2014-09-04T18:00:00Z,27.8383,-97.0503,0.0,29.7,2 
TCOON,ioos:station:TCOON:149:1,2014-09-04T18:30:00Z,27.8383,-97.0503,0.0,29.6,2 
TCOON,ioos:station:TCOON:149:1,2014-09-04T20:00:00Z,27.8383,-97.0503,0.0,29.8,2 
TCOON,ioos:station:TCOON:149:1,2014-09-04T21:30:00Z,27.8383,-97.0503,0.0,29.9,2 
TCOON,ioos:station:TCOON:149:1,2014-09-04T22:30:00Z,27.8383,-97.0503,0.0,30.0,2 
TCOON,ioos:station:TCOON:149:1,2014-09-05T02:30:00Z,27.8383,-97.0503,0.0,30.0,2 
TCOON,ioos:station:TCOON:149:1,2014-09-05T04:30:00Z,27.8383,-97.0503,0.0,29.9,2 
TCOON,ioos:station:TCOON:149:1,2014-09-05T06:00:00Z,27.8383,-97.0503,0.0,29.7,2 
TCOON,ioos:station:TCOON:149:1,2014-09-05T07:30:00Z,27.8383,-97.0503,0.0,29.6,2 
TCOON,ioos:station:TCOON:149:1,2014-09-05T08:30:00Z,27.8383,-97.0503,0.0,29.6,2 
TCOON,ioos:station:TCOON:149:1,2014-09-05T11:30:00Z,27.8383,-97.0503,0.0,29.6,2 
TCOON,ioos:station:TCOON:149:1,2014-09-05T12:30:00Z,27.8383,-97.0503,0.0,29.5,2 
TCOON,ioos:station:TCOON:149:1,2014-09-05T15:00:00Z,27.8383,-97.0503,0.0,29.5,2 
TCOON,ioos:station:TCOON:149:1,2014-09-05T16:30:00Z,27.8383,-97.0503,0.0,29.6,2 
TCOON,ioos:station:TCOON:149:1,2014-09-05T18:30:00Z,27.8383,-97.0503,0.0,29.8,2 
TCOON,ioos:station:TCOON:149:1,2014-09-06T09:30:00Z,27.8383,-97.0503,0.0,29.8,2 
TCOON,ioos:station:TCOON:149:1,2014-09-06T10:30:00Z,27.8383,-97.0503,0.0,29.8,2 
TCOON,ioos:station:TCOON:149:1,2014-09-06T12:00:00Z,27.8383,-97.0503,0.0,29.7,2 
TCOON,ioos:station:TCOON:149:1,2014-09-06T13:00:00Z,27.8383,-97.0503,0.0,29.7,2 
TCOON,ioos:station:TCOON:149:1,2014-09-06T14:30:00Z,27.8383,-97.0503,0.0,29.7,2 
TCOON,ioos:station:TCOON:149:1,2014-09-06T16:00:00Z,27.8383,-97.0503,0.0,29.7,2 
TCOON,ioos:station:TCOON:149:1,2014-09-06T16:30:00Z,27.8383,-97.0503,0.0,29.7,2 
TCOON,ioos:station:TCOON:149:1,2014-09-06T17:30:00Z,27.8383,-97.0503,0.0,29.8,2 
TCOON,ioos:station:TCOON:149:1,2014-09-06T18:30:00Z,27.8383,-97.0503,0.0,29.9,2 
TCOON,ioos:station:TCOON:149:1,2014-09-07T03:00:00Z,27.8383,-97.0503,0.0,30.4,2 
TCOON,ioos:station:TCOON:149:1,2014-09-07T07:30:00Z,27.8383,-97.0503,0.0,30.2,2 
TCOON,ioos:station:TCOON:149:1,2014-09-07T14:00:00Z,27.8383,-97.0503,0.0,29.8,2 
TCOON,ioos:station:TCOON:149:1,2014-09-07T15:00:00Z,27.8383,-97.0503,0.0,29.7,2 
TCOON,ioos:station:TCOON:149:1,2014-09-07T15:30:00Z,27.8383,-97.0503,0.0,29.7,2 
TCOON,ioos:station:TCOON:149:1,2014-09-07T17:30:00Z,27.8383,-97.0503,0.0,29.7,2 
TCOON,ioos:station:TCOON:149:1,2014-09-07T18:30:00Z,27.8383,-97.0503,0.0,29.8,2 
TCOON,ioos:station:TCOON:149:1,2014-09-07T19:30:00Z,27.8383,-97.0503,0.0,29.8,2 
TCOON,ioos:station:TCOON:149:1,2014-09-07T20:30:00Z,27.8383,-97.0503,0.0,29.8,2 
TCOON,ioos:station:TCOON:149:1,2014-09-07T21:30:00Z,27.8383,-97.0503,0.0,29.9,2 
TCOON,ioos:station:TCOON:149:1,2014-09-08T00:00:00Z,27.8383,-97.0503,0.0,30.0,2 
TCOON,ioos:station:TCOON:149:1,2014-09-08T05:30:00Z,27.8383,-97.0503,0.0,29.9,2 
TCOON,ioos:station:TCOON:149:1,2014-09-08T08:30:00Z,27.8383,-97.0503,0.0,29.8,2 
TCOON,ioos:station:TCOON:149:1,2014-09-08T09:30:00Z,27.8383,-97.0503,0.0,29.6,2 
TCOON,ioos:station:TCOON:149:1,2014-09-08T10:30:00Z,27.8383,-97.0503,0.0,29.6,2 
TCOON,ioos:station:TCOON:149:1,2014-09-08T11:30:00Z,27.8383,-97.0503,0.0,29.6,2 
TCOON,ioos:station:TCOON:149:1,2014-09-08T12:30:00Z,27.8383,-97.0503,0.0,29.6,2 
TCOON,ioos:station:TCOON:149:1,2014-09-08T13:30:00Z,27.8383,-97.0503,0.0,29.6,2 
TCOON,ioos:station:TCOON:149:1,2014-09-08T15:30:00Z,27.8383,-97.0503,0.0,29.7,2 
TCOON,ioos:station:TCOON:149:1,2014-09-08T16:30:00Z,27.8383,-97.0503,0.0,29.7,2 
TCOON,ioos:station:TCOON:149:1,2014-09-08T17:30:00Z,27.8383,-97.0503,0.0,29.8,2 
TCOON,ioos:station:TCOON:149:1,2014-09-08T20:00:00Z,27.8383,-97.0503,0.0,29.8,2 
TCOON,ioos:station:TCOON:149:1,2014-09-09T12:30:00Z,27.8383,-97.0503,0.0,29.7,2 
TCOON,ioos:station:TCOON:149:1,2014-09-09T14:30:00Z,27.8383,-97.0503,0.0,29.6,2 
TCOON,ioos:station:TCOON:149:1,2014-09-10T07:30:00Z,27.8383,-97.0503,0.0,30.0,2 
TCOON,ioos:station:TCOON:149:1,2014-09-10T16:00:00Z,27.8383,-97.0503,0.0,29.9,2 
TCOON,ioos:station:TCOON:149:1,2014-09-11T01:30:00Z,27.8383,-97.0503,0.0,30.2,2 
TCOON,ioos:station:TCOON:149:1,2014-09-12T14:30:00Z,27.8383,-97.0503,0.0,29.9,2 
TCOON,ioos:station:TCOON:149:1,2014-09-13T09:30:00Z,27.8383,-97.0503,0.0,30.0,2 
TCOON,ioos:station:TCOON:149:1,2014-09-13T11:30:00Z,27.8383,-97.0503,0.0,30.0,2 
TCOON,ioos:station:TCOON:149:1,2014-09-13T13:00:00Z,27.8383,-97.0503,0.0,29.9,2 
TCOON,ioos:station:TCOON:149:1,2014-09-13T13:30:00Z,27.8383,-97.0503,0.0,29.8,2 
TCOON,ioos:station:TCOON:149:1,2014-09-13T14:30:00Z,27.8383,-97.0503,0.0,29.6,2 
TCOON,ioos:station:TCOON:149:1,2014-09-13T15:30:00Z,27.8383,-97.0503,0.0,29.6,2 
TCOON,ioos:station:TCOON:149:1,2014-09-13T16:30:00Z,27.8383,-97.0503,0.0,29.5,2 
TCOON,ioos:station:TCOON:149:1,2014-09-13T17:30:00Z,27.8383,-97.0503,0.0,29.5,2 
TCOON,ioos:station:TCOON:149:1,2014-09-13T18:30:00Z,27.8383,-97.0503,0.0,29.4,2 
TCOON,ioos:station:TCOON:149:1,2014-09-13T19:30:00Z,27.8383,-97.0503,0.0,29.4,2 
TCOON,ioos:station:TCOON:149:1,2014-09-13T23:30:00Z,27.8383,-97.0503,0.0,28.8,2 
TCOON,ioos:station:TCOON:149:1,2014-09-14T00:30:00Z,27.8383,-97.0503,0.0,29.1,2 
TCOON,ioos:station:TCOON:149:1,2014-09-14T01:30:00Z,27.8383,-97.0503,0.0,29.5,2 
TCOON,ioos:station:TCOON:149:1,2014-09-14T03:00:00Z,27.8383,-97.0503,0.0,29.5,2 
TCOON,ioos:station:TCOON:149:1,2014-09-14T04:00:00Z,27.8383,-97.0503,0.0,29.4,2 
TCOON,ioos:station:TCOON:149:1,2014-09-14T05:00:00Z,27.8383,-97.0503,0.0,29.3,2 
TCOON,ioos:station:TCOON:149:1,2014-09-14T06:00:00Z,27.8383,-97.0503,0.0,29.3,2 
TCOON,ioos:station:TCOON:149:1,2014-09-14T06:30:00Z,27.8383,-97.0503,0.0,29.2,2 
TCOON,ioos:station:TCOON:149:1,2014-09-14T08:30:00Z,27.8383,-97.0503,0.0,29.1,2 
TCOON,ioos:station:TCOON:149:1,2014-09-14T09:30:00Z,27.8383,-97.0503,0.0,29.0,2 
TCOON,ioos:station:TCOON:149:1,2014-09-14T10:30:00Z,27.8383,-97.0503,0.0,28.9,2 
TCOON,ioos:station:TCOON:149:1,2014-09-14T11:30:00Z,27.8383,-97.0503,0.0,28.8,2 
TCOON,ioos:station:TCOON:149:1,2014-09-14T12:30:00Z,27.8383,-97.0503,0.0,28.6,2 
TCOON,ioos:station:TCOON:149:1,2014-09-14T14:00:00Z,27.8383,-97.0503,0.0,28.6,2 
TCOON,ioos:station:TCOON:149:1,2014-09-14T14:30:00Z,27.8383,-97.0503,0.0,28.6,2 
TCOON,ioos:station:TCOON:149:1,2014-09-14T15:30:00Z,27.8383,-97.0503,0.0,28.6,2 
TCOON,ioos:station:TCOON:149:1,2014-09-14T18:00:00Z,27.8383,-97.0503,0.0,28.7,2 
TCOON,ioos:station:TCOON:149:1,2014-09-14T18:30:00Z,27.8383,-97.0503,0.0,28.6,2 
TCOON,ioos:station:TCOON:149:1,2014-09-14T19:30:00Z,27.8383,-97.0503,0.0,28.1,2 
TCOON,ioos:station:TCOON:149:1,2014-09-14T21:00:00Z,27.8383,-97.0503,0.0,28.1,2 
TCOON,ioos:station:TCOON:149:1,2014-09-14T21:30:00Z,27.8383,-97.0503,0.0,28.1,2 
TCOON,ioos:station:TCOON:149:1,2014-09-14T22:30:00Z,27.8383,-97.0503,0.0,28.0,2 
TCOON,ioos:station:TCOON:149:1,2014-09-14T23:30:00Z,27.8383,-97.0503,0.0,28.0,2 
TCOON,ioos:station:TCOON:149:1,2014-09-15T00:30:00Z,27.8383,-97.0503,0.0,27.9,2 
TCOON,ioos:station:TCOON:149:1,2014-09-15T01:30:00Z,27.8383,-97.0503,0.0,28.1,2 
TCOON,ioos:station:TCOON:149:1,2014-09-15T03:30:00Z,27.8383,-97.0503,0.0,28.5,2 
TCOON,ioos:station:TCOON:149:1,2014-09-15T04:30:00Z,27.8383,-97.0503,0.0,28.5,2 
TCOON,ioos:station:TCOON:149:1,2014-09-15T05:30:00Z,27.8383,-97.0503,0.0,28.6,2 
TCOON,ioos:station:TCOON:149:1,2014-09-15T07:30:00Z,27.8383,-97.0503,0.0,28.5,2 
TCOON,ioos:station:TCOON:149:1,2014-09-15T08:30:00Z,27.8383,-97.0503,0.0,28.5,2 
TCOON,ioos:station:TCOON:149:1,2014-09-15T09:30:00Z,27.8383,-97.0503,0.0,28.5,2 
TCOON,ioos:station:TCOON:149:1,2014-09-15T10:30:00Z,27.8383,-97.0503,0.0,28.4,2 
TCOON,ioos:station:TCOON:149:1,2014-09-15T11:30:00Z,27.8383,-97.0503,0.0,28.3,2 
TCOON,ioos:station:TCOON:149:1,2014-09-15T12:30:00Z,27.8383,-97.0503,0.0,28.3,2 
TCOON,ioos:station:TCOON:149:1,2014-09-15T13:30:00Z,27.8383,-97.0503,0.0,28.3,2 
TCOON,ioos:station:TCOON:149:1,2014-09-15T15:00:00Z,27.8383,-97.0503,0.0,28.3,2 
TCOON,ioos:station:TCOON:149:1,2014-09-15T16:00:00Z,27.8383,-97.0503,0.0,28.3,2 
TCOON,ioos:station:TCOON:149:1,2014-09-15T16:30:00Z,27.8383,-97.0503,0.0,28.4,2 
TCOON,ioos:station:TCOON:149:1,2014-09-15T17:30:00Z,27.8383,-97.0503,0.0,28.5,2 
TCOON,ioos:station:TCOON:149:1,2014-09-15T19:00:00Z,27.8383,-97.0503,0.0,28.5,2 
TCOON,ioos:station:TCOON:149:1,2014-09-15T19:30:00Z,27.8383,-97.0503,0.0,28.5,2 
TCOON,ioos:station:TCOON:149:1,2014-09-15T20:30:00Z,27.8383,-97.0503,0.0,28.0,2 
TCOON,ioos:station:TCOON:149:1,2014-09-15T21:30:00Z,27.8383,-97.0503,0.0,27.8,2 
TCOON,ioos:station:TCOON:149:1,2014-09-15T22:30:00Z,27.8383,-97.0503,0.0,28.2,2 
TCOON,ioos:station:TCOON:149:1,2014-09-15T23:30:00Z,27.8383,-97.0503,0.0,28.2,2 
TCOON,ioos:station:TCOON:149:1,2014-09-16T01:00:00Z,27.8383,-97.0503,0.0,28.3,2 
TCOON,ioos:station:TCOON:149:1,2014-09-16T01:30:00Z,27.8383,-97.0503,0.0,28.4,2 
TCOON,ioos:station:TCOON:149:1,2014-09-16T02:30:00Z,27.8383,-97.0503,0.0,28.7,2 
TCOON,ioos:station:TCOON:149:1,2014-09-16T04:00:00Z,27.8383,-97.0503,0.0,28.7,2 
TCOON,ioos:station:TCOON:149:1,2014-09-16T05:30:00Z,27.8383,-97.0503,0.0,28.8,2 
TCOON,ioos:station:TCOON:149:1,2014-09-16T07:00:00Z,27.8383,-97.0503,0.0,28.8,2 
TCOON,ioos:station:TCOON:149:1,2014-09-16T07:30:00Z,27.8383,-97.0503,0.0,28.8,2 
TCOON,ioos:station:TCOON:149:1,2014-09-16T08:30:00Z,27.8383,-97.0503,0.0,28.7,2 
TCOON,ioos:station:TCOON:149:1,2014-09-16T09:30:00Z,27.8383,-97.0503,0.0,28.8,2 
TCOON,ioos:station:TCOON:149:1,2014-09-16T10:30:00Z,27.8383,-97.0503,0.0,28.8,2 
TCOON,ioos:station:TCOON:149:1,2014-09-16T11:30:00Z,27.8383,-97.0503,0.0,28.7,2 
TCOON,ioos:station:TCOON:149:1,2014-09-16T13:00:00Z,27.8383,-97.0503,0.0,28.7,2 
TCOON,ioos:station:TCOON:149:1,2014-09-16T14:00:00Z,27.8383,-97.0503,0.0,28.7,2 
TCOON,ioos:station:TCOON:149:1,2014-09-16T14:30:00Z,27.8383,-97.0503,0.0,28.7,2 
TCOON,ioos:station:TCOON:149:1,2014-09-16T16:00:00Z,27.8383,-97.0503,0.0,28.8,2 
TCOON,ioos:station:TCOON:149:1,2014-09-16T16:30:00Z,27.8383,-97.0503,0.0,28.8,2 
TCOON,ioos:station:TCOON:149:1,2014-09-16T17:30:00Z,27.8383,-97.0503,0.0,28.8,2 
TCOON,ioos:station:TCOON:149:1,2014-09-16T19:00:00Z,27.8383,-97.0503,0.0,28.6,2 
TCOON,ioos:station:TCOON:149:1,2014-09-16T19:30:00Z,27.8383,-97.0503,0.0,28.7,2 
TCOON,ioos:station:TCOON:149:1,2014-09-16T20:30:00Z,27.8383,-97.0503,0.0,28.8,2 
TCOON,ioos:station:TCOON:149:1,2014-09-16T22:30:00Z,27.8383,-97.0503,0.0,28.7,2 
TCOON,ioos:station:TCOON:149:1,2014-09-16T23:30:00Z,27.8383,-97.0503,0.0,28.8,2 
TCOON,ioos:station:TCOON:149:1,2014-09-17T01:30:00Z,27.8383,-97.0503,0.0,28.7,2 
TCOON,ioos:station:TCOON:149:1,2014-09-17T02:30:00Z,27.8383,-97.0503,0.0,28.6,2 
TCOON,ioos:station:TCOON:149:1,2014-09-17T03:30:00Z,27.8383,-97.0503,0.0,28.7,2 
TCOON,ioos:station:TCOON:149:1,2014-09-17T04:30:00Z,27.8383,-97.0503,0.0,28.8,2 
TCOON,ioos:station:TCOON:149:1,2014-09-17T05:30:00Z,27.8383,-97.0503,0.0,28.9,2 
TCOON,ioos:station:TCOON:149:1,2014-09-17T06:30:00Z,27.8383,-97.0503,0.0,29.0,2 
TCOON,ioos:station:TCOON:149:1,2014-09-17T08:00:00Z,27.8383,-97.0503,0.0,28.9,2 
TCOON,ioos:station:TCOON:149:1,2014-09-17T08:30:00Z,27.8383,-97.0503,0.0,28.9,2 
TCOON,ioos:station:TCOON:149:1,2014-09-17T09:30:00Z,27.8383,-97.0503,0.0,28.9,2 
TCOON,ioos:station:TCOON:149:1,2014-09-17T10:30:00Z,27.8383,-97.0503,0.0,28.8,2 
TCOON,ioos:station:TCOON:149:1,2014-09-17T12:30:00Z,27.8383,-97.0503,0.0,28.8,2 
TCOON,ioos:station:TCOON:149:1,2014-09-17T15:00:00Z,27.8383,-97.0503,0.0,28.9,2 
TCOON,ioos:station:TCOON:149:1,2014-09-17T15:30:00Z,27.8383,-97.0503,0.0,28.9,2 
TCOON,ioos:station:TCOON:149:1,2014-09-17T17:00:00Z,27.8383,-97.0503,0.0,28.9,2 
TCOON,ioos:station:TCOON:149:1,2014-09-17T18:00:00Z,27.8383,-97.0503,0.0,29.0,2 
TCOON,ioos:station:TCOON:149:1,2014-09-17T19:00:00Z,27.8383,-97.0503,0.0,29.1,2 
TCOON,ioos:station:TCOON:149:1,2014-09-17T21:30:00Z,27.8383,-97.0503,0.0,29.1,2 
TCOON,ioos:station:TCOON:149:1,2014-09-17T22:30:00Z,27.8383,-97.0503,0.0,29.2,2 
TCOON,ioos:station:TCOON:149:1,2014-09-17T23:30:00Z,27.8383,-97.0503,0.0,29.3,2 
TCOON,ioos:station:TCOON:149:1,2014-09-18T03:00:00Z,27.8383,-97.0503,0.0,29.2,2 
TCOON,ioos:station:TCOON:149:1,2014-09-18T04:00:00Z,27.8383,-97.0503,0.0,29.3,2 
TCOON,ioos:station:TCOON:149:1,2014-09-18T05:30:00Z,27.8383,-97.0503,0.0,29.3,2 
TCOON,ioos:station:TCOON:149:1,2014-09-18T07:00:00Z,27.8383,-97.0503,0.0,29.2,2 
TCOON,ioos:station:TCOON:149:1,2014-09-18T07:30:00Z,27.8383,-97.0503,0.0,29.2,2 
TCOON,ioos:station:TCOON:149:1,2014-09-18T10:00:00Z,27.8383,-97.0503,0.0,29.1,2 
TCOON,ioos:station:TCOON:149:1,2014-09-18T11:30:00Z,27.8383,-97.0503,0.0,29.0,2 
TCOON,ioos:station:TCOON:149:1,2014-09-18T14:30:00Z,27.8383,-97.0503,0.0,29.0,2 
TCOON,ioos:station:TCOON:149:1,2014-09-18T15:30:00Z,27.8383,-97.0503,0.0,29.0,2 
TCOON,ioos:station:TCOON:149:1,2014-09-18T18:30:00Z,27.8383,-97.0503,0.0,29.1,2 
TCOON,ioos:station:TCOON:149:1,2014-09-19T05:30:00Z,27.8383,-97.0503,0.0,29.6,2 
TCOON,ioos:station:TCOON:149:1,2014-09-19T09:30:00Z,27.8383,-97.0503,0.0,29.3,2 
TCOON,ioos:station:TCOON:149:1,2014-09-19T11:00:00Z,27.8383,-97.0503,0.0,29.2,2 
TCOON,ioos:station:TCOON:149:1,2014-09-19T11:30:00Z,27.8383,-97.0503,0.0,29.1,2 
TCOON,ioos:station:TCOON:149:1,2014-09-19T14:00:00Z,27.8383,-97.0503,0.0,29.1,2 
TCOON,ioos:station:TCOON:149:1,2014-09-19T15:30:00Z,27.8383,-97.0503,0.0,29.2,2 
TCOON,ioos:station:TCOON:149:1,2014-09-19T17:30:00Z,27.8383,-97.0503,0.0,29.2,2 
TCOON,ioos:station:TCOON:149:1,2014-09-19T20:30:00Z,27.8383,-97.0503,0.0,29.2,2 
TCOON,ioos:station:TCOON:149:1,2014-09-20T00:00:00Z,27.8383,-97.0503,0.0,29.2,2 
TCOON,ioos:station:TCOON:149:1,2014-09-20T01:30:00Z,27.8383,-97.0503,0.0,29.2,2 
TCOON,ioos:station:TCOON:149:1,2014-09-20T04:30:00Z,27.8383,-97.0503,0.0,29.1,2 
TCOON,ioos:station:TCOON:149:1,2014-09-20T07:30:00Z,27.8383,-97.0503,0.0,29.0,2 
TCOON,ioos:station:TCOON:149:1,2014-09-20T09:00:00Z,27.8383,-97.0503,0.0,29.0,2 
TCOON,ioos:station:TCOON:149:1,2014-09-20T09:30:00Z,27.8383,-97.0503,0.0,28.9,2 
TCOON,ioos:station:TCOON:149:1,2014-09-20T11:00:00Z,27.8383,-97.0503,0.0,28.9,2 
TCOON,ioos:station:TCOON:149:1,2014-09-20T11:30:00Z,27.8383,-97.0503,0.0,28.9,2 
TCOON,ioos:station:TCOON:149:1,2014-09-20T13:00:00Z,27.8383,-97.0503,0.0,28.9,2 
TCOON,ioos:station:TCOON:149:1,2014-09-20T14:00:00Z,27.8383,-97.0503,0.0,29.0,2 
TCOON,ioos:station:TCOON:149:1,2014-09-20T14:30:00Z,27.8383,-97.0503,0.0,28.9,2 
TCOON,ioos:station:TCOON:149:1,2014-09-20T15:30:00Z,27.8383,-97.0503,0.0,29.0,2 
TCOON,ioos:station:TCOON:149:1,2014-09-20T17:00:00Z,27.8383,-97.0503,0.0,29.1,2 
TCOON,ioos:station:TCOON:149:1,2014-09-20T17:30:00Z,27.8383,-97.0503,0.0,29.2,2 
TCOON,ioos:station:TCOON:149:1,2014-09-20T18:30:00Z,27.8383,-97.0503,0.0,29.2,2 
TCOON,ioos:station:TCOON:149:1,2014-09-20T19:30:00Z,27.8383,-97.0503,0.0,29.2,2 
TCOON,ioos:station:TCOON:149:1,2014-09-20T20:30:00Z,27.8383,-97.0503,0.0,29.2,2 
TCOON,ioos:station:TCOON:149:1,2014-09-20T21:30:00Z,27.8383,-97.0503,0.0,29.3,2 
TCOON,ioos:station:TCOON:149:1,2014-09-20T22:30:00Z,27.8383,-97.0503,0.0,29.4,2 
TCOON,ioos:station:TCOON:149:1,2014-09-20T23:30:00Z,27.8383,-97.0503,0.0,29.3,2 
TCOON,ioos:station:TCOON:149:1,2014-09-21T00:30:00Z,27.8383,-97.0503,0.0,29.3,2 
TCOON,ioos:station:TCOON:149:1,2014-09-21T01:30:00Z,27.8383,-97.0503,0.0,29.3,2 
TCOON,ioos:station:TCOON:149:1,2014-09-21T04:30:00Z,27.8383,-97.0503,0.0,29.2,2 
TCOON,ioos:station:TCOON:149:1,2014-09-21T07:00:00Z,27.8383,-97.0503,0.0,29.1,2 
TCOON,ioos:station:TCOON:149:1,2014-09-21T08:30:00Z,27.8383,-97.0503,0.0,29.1,2 
TCOON,ioos:station:TCOON:149:1,2014-09-21T10:00:00Z,27.8383,-97.0503,0.0,29.1,2 
TCOON,ioos:station:TCOON:149:1,2014-09-21T10:30:00Z,27.8383,-97.0503,0.0,29.1,2 
TCOON,ioos:station:TCOON:149:1,2014-09-21T11:30:00Z,27.8383,-97.0503,0.0,29.0,2 
TCOON,ioos:station:TCOON:149:1,2014-09-21T12:30:00Z,27.8383,-97.0503,0.0,29.0,2 
TCOON,ioos:station:TCOON:149:1,2014-09-21T14:00:00Z,27.8383,-97.0503,0.0,29.0,2 
TCOON,ioos:station:TCOON:149:1,2014-09-21T14:30:00Z,27.8383,-97.0503,0.0,29.0,2 
TCOON,ioos:station:TCOON:149:1,2014-09-21T15:30:00Z,27.8383,-97.0503,0.0,28.9,2 
TCOON,ioos:station:TCOON:149:1,2014-09-21T16:30:00Z,27.8383,-97.0503,0.0,28.9,2 
TCOON,ioos:station:TCOON:149:1,2014-09-21T17:30:00Z,27.8383,-97.0503,0.0,28.9,2 
TCOON,ioos:station:TCOON:149:1,2014-09-21T18:30:00Z,27.8383,-97.0503,0.0,29.0,2 
TCOON,ioos:station:TCOON:149:1,2014-09-21T19:30:00Z,27.8383,-97.0503,0.0,28.8,2 
TCOON,ioos:station:TCOON:149:1,2014-09-21T20:30:00Z,27.8383,-97.0503,0.0,28.9,2 
TCOON,ioos:station:TCOON:149:1,2014-09-21T21:30:00Z,27.8383,-97.0503,0.0,28.9,2 
TCOON,ioos:station:TCOON:149:1,2014-09-21T22:30:00Z,27.8383,-97.0503,0.0,28.9,2 
TCOON,ioos:station:TCOON:149:1,2014-09-21T23:30:00Z,27.8383,-97.0503,0.0,28.9,2 
TCOON,ioos:station:TCOON:149:1,2014-09-22T00:30:00Z,27.8383,-97.0503,0.0,28.9,2 
TCOON,ioos:station:TCOON:149:1,2014-09-22T01:30:00Z,27.8383,-97.0503,0.0,28.9,2 
TCOON,ioos:station:TCOON:149:1,2014-09-22T02:30:00Z,27.8383,-97.0503,0.0,28.8,2 
TCOON,ioos:station:TCOON:149:1,2014-09-22T03:30:00Z,27.8383,-97.0503,0.0,28.8,2 
TCOON,ioos:station:TCOON:149:1,2014-09-22T05:00:00Z,27.8383,-97.0503,0.0,28.9,2 
TCOON,ioos:station:TCOON:149:1,2014-09-22T05:30:00Z,27.8383,-97.0503,0.0,28.9,2 
TCOON,ioos:station:TCOON:149:1,2014-09-22T07:00:00Z,27.8383,-97.0503,0.0,28.6,2 
TCOON,ioos:station:TCOON:149:1,2014-09-22T08:30:00Z,27.8383,-97.0503,0.0,28.5,2 
TCOON,ioos:station:TCOON:149:1,2014-09-22T09:30:00Z,27.8383,-97.0503,0.0,28.4,2 
TCOON,ioos:station:TCOON:149:1,2014-09-22T10:30:00Z,27.8383,-97.0503,0.0,28.4,2 
TCOON,ioos:station:TCOON:149:1,2014-09-22T11:30:00Z,27.8383,-97.0503,0.0,28.5,2 
TCOON,ioos:station:TCOON:149:1,2014-09-22T13:00:00Z,27.8383,-97.0503,0.0,28.4,2 
TCOON,ioos:station:TCOON:149:1,2014-09-22T13:30:00Z,27.8383,-97.0503,0.0,28.3,2 
TCOON,ioos:station:TCOON:149:1,2014-09-22T14:30:00Z,27.8383,-97.0503,0.0,28.4,2 
TCOON,ioos:station:TCOON:149:1,2014-09-22T15:30:00Z,27.8383,-97.0503,0.0,28.4,2 
TCOON,ioos:station:TCOON:149:1,2014-09-22T16:30:00Z,27.8383,-97.0503,0.0,28.5,2 
TCOON,ioos:station:TCOON:149:1,2014-09-22T17:30:00Z,27.8383,-97.0503,0.0,28.5,2 
TCOON,ioos:station:TCOON:149:1,2014-09-22T18:30:00Z,27.8383,-97.0503,0.0,28.6,2 
TCOON,ioos:station:TCOON:149:1,2014-09-22T20:00:00Z,27.8383,-97.0503,0.0,28.6,2 